Tracking 29892 objects as of 21-Nov-2024
HD Live streaming from Space Station
objects crossing your sky now

METEOR 1-16

Track METEOR 1-16 now!
10-day predictions
METEOR 1-16 is classified as:


NORAD ID: 7209
Int'l Code: 1974-011A
Perigee: 824.4 km
Apogee: 879.0 km
Inclination: 81.2 °
Period: 101.8 minutes
Semi major axis: 7222 km
RCS: 4.3253 m2 (large)
Launch date: March 5, 1974
Source: Commonwealth of Independent States (former USSR) (CIS)
Launch site: PLESETSK MISSILE AND SPACE COMPLEX (PKMTR)
Your satellite tracking list
Your tracking list is empty




NASA's NSSDC Master Catalog

Two Line Element Set (TLE):
1  7209U 74011A   24325.18136447  .00000199  00000-0  97000-4 0  9990
2  7209  81.2282 233.5648 0037792 237.2813 122.4715 14.14350128614336
Source of the keplerian elements: AFSPC